Home   Weather   Wylie   Past weeks
Flag for USA

Past Weather in Wylie, Texas, USA — Yesterday and Last 2 Weeks

Now
58 °F

Clear.


Feels Like: 57 °F
Forecast: 77 / 57 °F
Wind: 5 mph from East

Location: Rockwall Muni

Current Time: Oct 14, 2019 at 4:25:38 am

Latest Report: Oct 14, 2019 at 3:55 am


Visibility: 10 mi

Pressure: 30.00 "Hg

Humidity: 80%

Dew Point: 52 °F

Location of WylieLocation

Past Weather in Wylie — Graph

°F

Wylie Temperature Yesterday

Maximum temperature yesterday: 76 °F (at 4:35 pm)
Minimum temperature yesterday: 52 °F (at 12:35 am)
Average temperature yesterday: 63 °F

High & Low Weather Summary for the Past Weeks

 TemperatureHumidityPressure
High95 °F (Oct 6, 4:55 pm)100% (Sep 30, 6:15 am)30.31 "Hg (Sep 30, 6:15 am)
Low36 °F (Oct 12, 7:35 am)21% (Oct 12, 4:15 pm)29.74 "Hg (Oct 10, 7:55 pm)
Average73 °F66%30.03 "Hg
* Reported Sep 29 3:15 am — Oct 14 3:15 am, Wylie. Weather by CustomWeather, © 2019

Note: Actual official high and low records may vary slightly from our data, if they occured in-between our weather recording intervals... More about our weather records

Advertising

Wylie Weather History for the Previous 24 Hours

Scroll right to see more
 ConditionsComfort  
Time TempWeatherWind HumidityBarometerVisibility
3:15 am
Mon, Oct 14
57 °FClear.7 mph81%30.00 "Hg10 mi
2:55 am58 °FClear.6 mph80%30.01 "Hg10 mi
2:35 am58 °FClear.7 mph78%30.00 "Hg10 mi
2:15 am59 °FClear.6 mph77%30.00 "Hg10 mi
1:55 am59 °FClear.7 mph76%30.01 "Hg10 mi
1:35 am59 °FClear.7 mph77%30.01 "Hg10 mi
1:15 am59 °FClear.7 mph76%30.01 "Hg10 mi
12:55 am59 °FClear.5 mph76%30.00 "Hg10 mi
12:35 am59 °FClear.6 mph75%30.01 "Hg10 mi
12:15 am60 °FClear.7 mph74%30.01 "Hg10 mi
11:55 pm
Sun, Oct 13
60 °FClear.7 mph72%30.01 "Hg10 mi
11:35 pm60 °FClear.6 mph72%30.01 "Hg10 mi
11:15 pm60 °FClear.6 mph71%30.01 "Hg10 mi
10:55 pm60 °FClear.6 mph69%30.02 "Hg10 mi
10:35 pm60 °FClear.7 mph67%30.01 "Hg10 mi
10:15 pm60 °FClear.7 mph66%30.01 "Hg10 mi
9:55 pm61 °FClear.7 mph64%30.00 "Hg10 mi
9:35 pm62 °FClear.8 mph61%30.00 "Hg10 mi
9:15 pm62 °FClear.8 mph60%30.00 "Hg10 mi
8:55 pm63 °FClear.6 mph57%30.00 "Hg10 mi
8:35 pm64 °FClear.6 mph56%29.99 "Hg10 mi
8:15 pm64 °FClear.6 mph56%29.99 "Hg10 mi
7:55 pm64 °FClear.6 mph54%29.98 "Hg10 mi
7:35 pm65 °FClear.5 mph51%29.98 "Hg10 mi
7:15 pm66 °FClear.6 mph48%29.97 "Hg10 mi
6:55 pm68 °FClear.5 mph46%29.97 "Hg10 mi
6:35 pm70 °FSunny.7 mph42%29.97 "Hg10 mi
6:15 pm72 °FSunny.6 mph40%29.97 "Hg10 mi
5:55 pm73 °FSunny.5 mph38%29.96 "Hg10 mi
5:35 pm74 °FSunny.12 mph38%29.95 "Hg10 mi
5:15 pm76 °FSunny.9 mph36%29.96 "Hg10 mi
4:35 pm76 °FSunny.8 mph34%29.96 "Hg10 mi
4:15 pm76 °FSunny.9 mph33%29.96 "Hg10 mi
3:55 pm76 °FSunny.8 mph34%29.96 "Hg10 mi
3:35 pm76 °FSunny.7 mph34%29.97 "Hg10 mi
3:15 pm75 °FSunny.8 mph34%29.97 "Hg10 mi
2:55 pm76 °FSunny.7 mph33%29.98 "Hg10 mi
2:35 pm76 °FSunny.9 mph33%29.98 "Hg10 mi
2:15 pm76 °FSunny.7 mph32%30.00 "Hg10 mi
1:55 pm74 °FSunny.6 mph31%30.00 "Hg10 mi
1:35 pm74 °FSunny.7 mph33%30.01 "Hg10 mi
1:15 pm73 °FSunny.3 mph34%30.03 "Hg10 mi
12:55 pm72 °FScattered clouds.8 mph35%30.04 "Hg10 mi
12:35 pm71 °FScattered clouds.5 mph36%30.04 "Hg10 mi
12:15 pm70 °FSunny.5 mph38%30.05 "Hg10 mi
11:55 am69 °FScattered clouds.8 mph40%30.06 "Hg10 mi
11:35 am68 °FPartly sunny.8 mph41%30.06 "Hg10 mi
11:15 am67 °FOvercast.6 mph41%30.06 "Hg10 mi
10:55 am65 °FOvercast.7 mph44%30.07 "Hg10 mi
10:35 am63 °FOvercast.6 mph53%30.07 "Hg10 mi
10:15 am61 °FOvercast.8 mph56%30.07 "Hg10 mi
9:55 am60 °FOvercast.7 mph59%30.07 "Hg10 mi
9:35 am59 °FOvercast.9 mph63%30.08 "Hg10 mi
9:15 am59 °FOvercast.8 mph65%30.07 "Hg10 mi
8:55 am58 °FOvercast.8 mph65%30.07 "Hg10 mi
8:35 am57 °FOvercast.10 mph67%30.05 "Hg10 mi
8:15 am57 °FOvercast.9 mph68%30.05 "Hg10 mi
7:35 am56 °FOvercast.7 mph66%30.05 "Hg10 mi
7:15 am56 °FOvercast.6 mph66%30.05 "Hg10 mi
6:55 am56 °FOvercast.8 mph67%30.05 "Hg10 mi
6:35 am56 °FOvercast.7 mph66%30.05 "Hg10 mi
6:15 am55 °FOvercast.3 mph66%30.05 "Hg10 mi
5:55 am55 °FOvercast.3 mph65%30.05 "Hg10 mi
5:35 am55 °FOvercast.6 mph64%30.05 "Hg2 mi
5:15 am55 °FOvercast.5 mph63%30.05 "Hg5 mi
4:55 am55 °FOvercast.3 mph62%30.05 "Hg2 mi
4:35 am55 °FOvercast.No wind63%30.05 "Hg5 mi
4:15 am54 °FOvercast.3 mph61%30.05 "Hg10 mi
Weather by CustomWeather, © 2019

See weather overview